DW5321 Paradera AW current weather conditions

sailwx.info

Wind from 132 at 13 knots gusting 20

Air temperature 27.8° C
Dewpoint 22.7° C

Last reported at 2015-Jan-30 15:51 UTC.
Time now 2015-Jan-30 17:00 UTC

Location: N 12°33' W 070°00'.
View on Google Maps.

See reports from other nearby stations

  
Tides and Currents Weather Stations Pressure Air Temp Water Temp Dewpoint Dewpoint Depression Visibility Wind Speed Wind Dir Waves Ship Positions
date/time (UTC)wind fromknots sea level pressurealtimeterstation pressurevisibilityair tempwater tempwave heightnotes
2015-Jan-30 15:51 132 13 gusting 20 27.8
2015-Jan-30 15:36 100 12 gusting 21 27.8
2015-Jan-30 15:21 060 9 gusting 15 27.8
2015-Jan-30 15:06 081 8 gusting 19 28.3
2015-Jan-30 14:51 091 14 gusting 20 27.8
2015-Jan-30 14:36 094 13 gusting 17 27.8
2015-Jan-30 14:21 108 8 gusting 14 27.8
2015-Jan-30 14:06 071 10 gusting 16 27.2
2015-Jan-30 13:51 111 10 gusting 16 27.2
2015-Jan-30 13:36 117 8 gusting 15 27.2
2015-Jan-30 13:21 086 10 gusting 17 27.2
2015-Jan-30 13:06 098 11 gusting 17 27.2
2015-Jan-30 12:51 086 7 gusting 16 27.2
2015-Jan-30 12:36 084 8 gusting 14 26.7
2015-Jan-30 12:21 106 8 gusting 17 26.1
2015-Jan-30 12:06 097 6 gusting 13 26.1
2015-Jan-30 11:51 105 8 gusting 13 25.6
2015-Jan-30 11:36 073 8 gusting 12 25.6
2015-Jan-30 11:21 095 8 gusting 13 25.6
2015-Jan-30 11:05 078 6 gusting 12 25.6
2015-Jan-30 10:50 077 6 gusting 11 25.6
2015-Jan-30 10:35 114 6 gusting 11 25.6
2015-Jan-30 10:20 079 3 gusting 10 25.6
2015-Jan-30 10:05 081 6 gusting 11 25.6
2015-Jan-30 09:50 105 6 gusting 10 25.6
2015-Jan-30 09:35 108 7 gusting 10 25.6
2015-Jan-30 09:20 101 6 gusting 9 25.6
2015-Jan-30 09:05 088 5 gusting 11 25.6
2015-Jan-30 08:50 139 3 gusting 9 25.6
2015-Jan-30 08:35 089 8 gusting 12 25.6
2015-Jan-30 08:20 080 4 gusting 13 25.6
2015-Jan-30 08:05 120 4 gusting 12 25.6
2015-Jan-30 07:50 068 6 gusting 15 25.6
2015-Jan-30 07:35 101 6 gusting 12 25.6
2015-Jan-30 07:20 108 6 gusting 13 25.6
2015-Jan-30 07:05 084 6 gusting 10 25.6
2015-Jan-30 06:50 084 6 gusting 9 25.6
2015-Jan-30 06:35 066 5 gusting 13 25.6
2015-Jan-30 06:20 100 6 gusting 11 25.6
2015-Jan-30 06:05 070 6 gusting 10 25.6
2015-Jan-30 05:50 081 3 gusting 11 25.6
2015-Jan-30 05:35 070 5 gusting 11 25.6
2015-Jan-30 05:20 105 6 gusting 12 25.6
2015-Jan-30 05:05 097 6 gusting 11 25.6
2015-Jan-30 04:50 089 6 gusting 13 25.6
2015-Jan-30 04:35 077 6 gusting 13 25.6
2015-Jan-30 04:20 097 5 gusting 11 25.6
2015-Jan-30 04:05 110 6 gusting 11 25.6
2015-Jan-30 03:50 097 6 gusting 11 26.1
2015-Jan-30 03:35 110 5 gusting 9 26.1
2015-Jan-30 03:20 141 6 gusting 13 26.1
2015-Jan-30 03:05 083 6 gusting 12 26.1
2015-Jan-30 02:50 056 5 gusting 10 26.1
2015-Jan-30 02:35 108 7 gusting 12 25.6
2015-Jan-30 02:20 075 6 gusting 9 25.6
2015-Jan-30 02:05 084 6 gusting 10 26.1
2015-Jan-30 01:50 044 6 gusting 13 26.1
2015-Jan-30 01:35 071 6 gusting 12 26.1
2015-Jan-30 01:20 066 6 gusting 13 26.1
2015-Jan-30 01:05 100 6 gusting 11 26.1
2015-Jan-30 00:50 049 5 gusting 13 26.1
2015-Jan-30 00:35 077 5 gusting 11 26.1
2015-Jan-30 00:20 046 6 gusting 11 26.1
2015-Jan-30 00:05 064 6 gusting 12 26.1
2015-Jan-29 23:50 099 6 gusting 12 26.1
2015-Jan-29 23:35 060 6 gusting 12 26.1
2015-Jan-29 23:20 069 5 gusting 12 26.1
2015-Jan-29 23:05 079 3 gusting 13 26.1
2015-Jan-29 22:50 089 6 gusting 13 26.1
2015-Jan-29 22:35 098 8 gusting 12 26.7
2015-Jan-29 22:20 079 8 gusting 14 26.7
2015-Jan-29 22:05 072 9 gusting 15 27.2
2015-Jan-29 21:50 074 10 gusting 16 27.2
2015-Jan-29 21:35 086 10 gusting 19 27.2
2015-Jan-29 21:20 064 8 gusting 14 27.2
2015-Jan-29 21:05 075 10 gusting 19 27.8
2015-Jan-29 20:50 081 7 gusting 17 27.8
2015-Jan-29 20:35 090 9 gusting 19 27.8
2015-Jan-29 20:20 101 9 gusting 16 27.8
2015-Jan-29 20:05 065 7 gusting 16 27.8
2015-Jan-29 19:50 077 7 gusting 13 27.8
2015-Jan-29 19:34 105 7 gusting 16 27.8
2015-Jan-29 19:19 081 10 gusting 16 27.8
2015-Jan-29 19:04 074 9 gusting 16 27.8
2015-Jan-29 18:49 094 7 gusting 13 27.8
2015-Jan-29 18:34 105 8 gusting 15 27.8
2015-Jan-29 18:20 084 7 gusting 13 27.8
2015-Jan-29 18:04 084 9 gusting 14 27.2
2015-Jan-29 17:49 100 8 gusting 19 28.3
2015-Jan-29 17:34 073 10 gusting 18 28.3
2015-Jan-29 17:19 086 9 gusting 16 28.9
2015-Jan-29 17:04 094 9 gusting 17 29.4
2015-Jan-29 16:49 072 9 gusting 15 29.4
2015-Jan-29 16:34 105 12 gusting 18 28.3
2015-Jan-29 16:19 096 11 gusting 17 28.3
2015-Jan-29 16:04 084 9 gusting 16 28.3
2015-Jan-29 15:49 082 9 gusting 18 28.3
2015-Jan-29 15:34 068 11 gusting 19 28.3
2015-Jan-29 15:19 075 9 gusting 16 28.3
2015-Jan-29 15:04 108 11 gusting 19 28.9
2015-Jan-29 14:49 133 9 gusting 18 28.3
2015-Jan-29 14:34 151 13 gusting 20 27.8
2015-Jan-29 14:19 108 10 gusting 17 27.8
2015-Jan-29 14:04 047 9 gusting 17 27.8
2015-Jan-29 13:49 120 9 gusting 17 27.8
2015-Jan-29 13:34 077 9 gusting 15 27.2
2015-Jan-29 13:19 117 11 gusting 19 27.2
2015-Jan-29 13:04 100 10 gusting 14 27.2
2015-Jan-29 12:49 077 8 gusting 14 26.7
2015-Jan-29 12:34 079 7 gusting 13 26.7
2015-Jan-29 12:19 094 9 gusting 15 26.1
2015-Jan-29 12:04 109 5 gusting 13 26.1
2015-Jan-29 11:49 081 6 gusting 12 26.1
2015-Jan-29 11:34 099 6 gusting 15 25.6
2015-Jan-29 11:19 094 6 gusting 11 25.6
2015-Jan-29 11:04 084 5 gusting 10 25.6
2015-Jan-29 10:48 084 3 gusting 11 25.6
2015-Jan-29 10:33 108 6 gusting 12 25.6
2015-Jan-29 10:18 097 3 gusting 10 25.6
2015-Jan-29 10:03 099 4 gusting 8 25.6
2015-Jan-29 09:48 061 3 gusting 12 25.0
2015-Jan-29 09:33 096 5 gusting 8 25.0
2015-Jan-29 09:18 068 5 gusting 10 25.0
2015-Jan-29 09:03 117 3 gusting 12 25.0
2015-Jan-29 08:48 108 6 gusting 12 25.0
2015-Jan-29 08:33 099 5 gusting 11 25.0
2015-Jan-29 08:18 094 6 gusting 12 25.0
2015-Jan-29 08:03 113 6 gusting 12 25.0
2015-Jan-29 07:48 112 7 gusting 13 25.6
2015-Jan-29 07:33 077 6 gusting 15 25.0
2015-Jan-29 07:18 101 6 gusting 12 25.0
2015-Jan-29 07:03 104 6 gusting 12 25.0
2015-Jan-29 06:48 096 6 gusting 13 25.6
2015-Jan-29 05:48 049 6 gusting 11 25.0
2015-Jan-29 05:33 062 6 gusting 15 25.6
2015-Jan-29 05:18 108 6 gusting 13 25.0
2015-Jan-29 05:03 071 6 gusting 13 25.0
2015-Jan-29 04:48 103 6 gusting 11 25.0
2015-Jan-29 04:33 077 6 gusting 12 25.0
2015-Jan-29 04:18 076 5 gusting 13 25.0
2015-Jan-29 04:03 075 3 gusting 9 25.0
2015-Jan-29 03:48 070 6 gusting 10 25.6
2015-Jan-29 03:33 104 5 gusting 11 25.0
2015-Jan-29 03:18 082 5 gusting 10 25.0
2015-Jan-29 03:03 096 6 gusting 12 25.0
2015-Jan-29 02:48 096 6 gusting 11 25.6
2015-Jan-29 02:33 061 3 gusting 12 25.6
2015-Jan-29 02:18 058 6 gusting 13 25.6
2015-Jan-29 02:02 088 6 gusting 13 25.6
2015-Jan-29 01:47 079 5 gusting 12 25.6
2015-Jan-29 01:32 091 6 gusting 15 25.6
2015-Jan-29 01:17 101 6 gusting 10 25.6
2015-Jan-29 01:02 097 6 gusting 13 25.6
2015-Jan-29 00:47 082 5 gusting 12 25.6
2015-Jan-29 00:32 089 5 gusting 9 25.6
2015-Jan-29 00:17 110 6 gusting 13 25.6
2015-Jan-29 00:02 108 7 gusting 14 26.1
2015-Jan-28 23:47 101 7 gusting 13 26.1
2015-Jan-28 23:32 104 7 gusting 13 25.6
2015-Jan-28 23:17 088 6 gusting 11 26.1
2015-Jan-28 23:02 077 4 gusting 8 26.1
2015-Jan-28 22:47 096 7 gusting 13 26.1
2015-Jan-28 22:32 089 7 gusting 13 26.1
2015-Jan-28 22:17 111 8 gusting 14 26.7
2015-Jan-28 22:02 120 11 gusting 15 26.7
2015-Jan-28 21:47 117 9 gusting 18 27.2
2015-Jan-28 21:32 097 13 gusting 17 27.2
2015-Jan-28 21:17 101 12 gusting 19 27.8
2015-Jan-28 21:02 089 12 gusting 16 27.2
2015-Jan-28 20:47 115 13 gusting 21 27.8
2015-Jan-28 20:32 072 10 gusting 19 27.8
2015-Jan-28 20:17 146 13 gusting 21 27.8
2015-Jan-28 20:02 097 12 gusting 19 28.3
2015-Jan-28 19:47 066 9 gusting 19 28.3
2015-Jan-28 19:32 084 12 gusting 21 28.3
2015-Jan-28 19:17 055 11 gusting 21 28.9
2015-Jan-28 19:02 105 13 gusting 21 28.3
2015-Jan-28 18:47 120 10 gusting 15 28.9
2015-Jan-28 18:32 090 10 gusting 15 28.9
2015-Jan-28 18:17 073 10 gusting 19 28.9
2015-Jan-28 18:02 081 8 gusting 17 29.4
2015-Jan-28 17:47 110 8 gusting 17 29.4
2015-Jan-28 17:32 083 11 gusting 18 29.4
2015-Jan-28 17:17 068 10 gusting 17 28.9
2015-Jan-28 17:02 096 10 gusting 19 28.9